Regional Weather Roundup
Issued by NWS

Home | Current Version | Previous Version | Text Only | Print | Product List | Glossary Off
Versions: 1 2 3 4 5 6 7 8 9 10 11 12 13 14 15 16 17 18 19 20 21 22 23 24 25 26 27 28 29 30 31 32 33 34 35 36 37 38 39 40 41 42 43 44 45 46 47 48 49 50

000
ASUS43 KOAX 271602
RWRNE

WEATHER ROUNDUP FOR NEBRASKA
NATIONAL WEATHER SERVICE OMAHA NE
1100 AM CDT WED JUL 27 2016

NOTES: SATELLITE DATA IS BEING USED TO AUGMENT CLOUD COVER ABOVE
       12000 FEET.
       "FAIR" INDICATES FEW OR NO CLOUDS BELOW 12,000 FEET WITH NO
       SIGNIFICANT WEATHER AND/OR OBSTRUCTIONS TO VISIBILITY.

  * THESE STATIONS DO NOT REPORT WEATHER SUCH AS RAIN...SNOW OR FOG.

NEZ001>004-019>022-054>056-271700-
NEBRASKA PANHANDLE

CITY           SKY/WX    TMP DP  RH WIND       PRES   REMARKS
SCOTTSBLUFF    CLOUDY    74  60  61 E3        30.16R
ALLIANCE       PTSUNNY   70  61  73 VRB3      30.13F
CHADRON        PTSUNNY   74  61  63 W8        30.08F
SIDNEY         SUNNY     71  58  63 VRB6      30.18F
$$

NEZ057>060-069>072-079>082-271700-
SOUTHWEST NEBRASKA

CITY           SKY/WX    TMP DP  RH WIND       PRES   REMARKS
NORTH PLATTE   MOSUNNY   70  62  76 NW13      30.15R
IMPERIAL       MOSUNNY   75  61  61 W8        30.14R
LEXINGTON      SUNNY    N/A N/A N/A NW6       30.08F
MCCOOK         PTSUNNY   73  62  68 N6        30.08R
OGALLALA       MOSUNNY   77  59  54 N7        30.15R
$$

NEZ005>010-023>029-035>040-094-271700-
NORTH CENTRAL NEBRASKA

CITY           SKY/WX    TMP DP  RH WIND       PRES   REMARKS
VALENTINE      MOSUNNY   78  58  49 MISG      30.09F
AINSWORTH      SUNNY     75  62  64 W3        30.11F
BROKEN BOW     MOSUNNY   74  66  76 NE8       30.12R
O`NEILL        SUNNY     76  58  53 NW3       30.08S
ORD            MOSUNNY   75  62  64 NE8       30.09R
THEDFORD       CLOUDY    73  62  69 NW10      30.15S
$$

NEZ041-046>049-061>064-073>077-083>087-271700-
SOUTH CENTRAL NEBRASKA

CITY           SKY/WX    TMP DP  RH WIND       PRES   REMARKS
GRAND ISLAND   SUNNY     77  64  64 NE12      30.07F
AURORA         SUNNY     76  66  71 N8        30.07S
HASTINGS       MOSUNNY   73  63  70 NE10      30.09R
HEBRON         PTSUNNY   78  66  66 N10       30.04F
HOLDREGE       SUNNY     75  64  67 NW7       30.07R
KEARNEY *      SUNNY     77  18  10 NE10      30.10R
YORK           SUNNY     75  64  69 CALM      30.05F
$$

NEZ011>018-030>034-042>045-271700-
NORTHEAST NEBRASKA

CITY           SKY/WX    TMP DP  RH WIND       PRES   REMARKS
NORFOLK        SUNNY     79  62  56 N17       30.03F
ALBION         SUNNY     74  65  74 N10       30.06F
BLAIR          CLOUDY    82  70  68 SW9       29.98F
FREMONT        SUNNY     80  64  56 W9        30.01R
TEKAMAH        CLOUDY    79  68  69 CALM      29.99R
WAYNE          SUNNY     80  68  65 N14       30.02S
$$

NEZ050>053-065>068-078-088>093-271700-
SOUTHEAST NEBRASKA

CITY           SKY/WX    TMP DP  RH WIND       PRES   REMARKS
LINCOLN        SUNNY     82  63  52 SW10      30.01F
OMAHA EPPLEY   CLOUDY    82  69  64 S13       29.98F
BEATRICE       PTSUNNY   79  68  70 N9        30.04S
FALLS CITY     CLOUDY    82  71  69 VRB5      30.02R
NEBRASKA CITY  PTSUNNY   78  71  79 W7        30.04R
PLATTSMOUTH    MOSUNNY   79  70  74 SW6       30.02F
$$

NEZ044-045-051>053-067-271700-
OMAHA AREA

CITY           SKY/WX    TMP DP  RH WIND       PRES   REMARKS
OMAHA EPPLEY   CLOUDY    82  69  64 S13       29.98F
BLAIR          CLOUDY    82  70  68 SW9       29.98F
FREMONT        SUNNY     80  64  56 W9        30.01R
MILLARD        MOSUNNY   82  70  67 SW7       29.99F
OFFUTT AFB     CLOUDY    81  70  69 VRB7      29.99F
PLATTSMOUTH    MOSUNNY   79  70  74 SW6       30.02F
WAHOO          FAIR      81  63  53 W6        30.00S
$$




USA.gov is the U.S. government's official web portal to all federal, state and local government web resources and services.